Location: Bletchingley
(51.2333°N, 0.1000°W)
Time: 04:24:36
(UTC+00:00)

Cosmos 1674 - Pass Details

Date: 26 January 2021
Orbit: 492 x 518 km, 82.5° (Epoch: 03 March)

Event Time Altitude Azimuth Distance (km) Brightness Sun altitude
Rises 17:33:52 0° 238° (WSW) 2,637 8.2 -8.4°
Reaches altitude 10° 17:36:54 10° 265° (W) 1,755 6.9 -8.9°
Maximum altitude 17:38:57 14° 297° (WNW) 1,526 5.7 -9.2°
Drops below altitude 10° 17:41:01 10° 329° (NNW) 1,759 5.6 -9.5°
Sets 17:44:05 0° 356° (N) 2,649 6.2 -10.0°
